Regional Weather Roundup
Issued by NWS Kansas City/Pleasant Hill, MO

Home | Current Version | Previous Version | Graphics & Text | Print | Product List | Glossary Off
Versions: 1 2 3 4 5 6 7 8 9 10 11 12 13 14 15 16 17 18 19 20 21 22 23 24 25 26 27 28 29 30 31 32 33 34 35 36 37 38 39 40 41 42 43 44 45 46 47 48 49 50

000
ASUS43 KEAX 191110
RWREAX

WEATHER ROUNDUP FOR EASTERN KANSAS AND NORTHWEST MISSOURI
NATIONAL WEATHER SERVICE KANSAS CITY/PLEASANT HILL MO
600 AM CDT SUN APR 19 2015

KSZ040-057-103>105-MOZ028-029-037-043-191200-
...KANSAS CITY METROPOLITAN AREA...

CITY           SKY/WX    TMP DP  RH WIND       PRES   REMARKS
K.C. INTL      LGT RAIN  53  53 100 NE6       29.70F
K.C. DOWNTOWN  CLOUDY    56  52  86 N7        29.68F
LEES SUMMIT    MOCLDY    54  53  97 NW3       29.71F
OLATHE - IXD   MOCLDY    52  51  97 N5        29.69F
OLATHE - OJC   CLOUDY    53  52  96 NE8       29.67F
LAWRENCE       MOCLDY    52  51  97 W6        29.70F

$$

MOZ001>008-011>017-020>025-030>033-038>040-044>046-053-054-191200-
...NORTHERN AND CENTRAL MISSOURI...

CITY           SKY/WX    TMP DP  RH WIND       PRES   REMARKS
ST. JOSEPH     LGT RAIN  56  54  93 SW6       29.73F FOG
MOSBY          LGT RAIN  55  55 100 NW6       29.71F
WARRENSBURG    CLOUDY    57  55  94 W9        29.71S
WHITEMAN AFB   MOCLDY    58  58 100 W7        29.70S
CLINTON        PTCLDY    55  55 100 W7        29.72F
SEDALIA        CLOUDY    54  52  93 CALM      29.71F FOG
WARSAW         NOT AVBL
CHILLICOTHE      N/A     57  57 100 CALM      29.74F
MOBERLY        PTCLDY    54  50  87 N3        29.72F
KIRKSVILLE     FOG       52  52 100 NW3       29.74S VSB 1/2

$$

MOZ041-047>049-056>058-063>065-088>090-097-191200-
...EASTERN AND SOUTHERN MISSOURI...

CITY           SKY/WX    TMP DP  RH WIND       PRES   REMARKS
ST. LOUIS INTL CLOUDY    63  52  67 E6        29.71F
SPIRIT OF STL  CLOUDY    60  57  89 CALM      29.68F
COLUMBIA       MOCLDY    56  55  97 CALM      29.70F
JEFFERSON CITY CLOUDY    54  53  97 W5        29.70F
MEXICO         CLEAR    N/A N/A N/A E3        29.71F
HANNIBAL       CLEAR     57  55  94 CALM      29.72F
ROLLA          CLOUDY    58  55  90 SE9       29.71S
OSAGE BEACH    CLOUDY    55  54  94 CALM      29.70F
SPRINGFIELD    MOCLDY    55  52  89 NW10      29.72S
BRANSON        LGT RAIN  57  57 100 NW8       29.73S
NEVADA         PTCLDY    52  50  93 E6        29.71F
JOPLIN         PTCLDY    51  49  92 SE3       29.73F
WEST PLAINS    LGT RAIN  59  57  93 N3        29.70F

$$

IAZ060-094-KSZ022-034>040-054-083-096-NEZ052-066-093-191200-
...KANSAS...SOUTHEAST NEBRASKA AND IOWA...

CITY           SKY/WX    TMP DP  RH WIND       PRES   REMARKS
TOPEKA         CLOUDY    54  53  97 CALM      29.72R
MANHATTAN      CLOUDY    53  51  93 W5        29.74R
EMPORIA        CLOUDY    51  50  96 NW6       29.72R
CHANUTE        CLOUDY    53  53 100 NW6       29.71R
WICHITA        CLOUDY    51  49  92 W3        29.73S
OMAHA          FOG       56  56 100 CALM      29.73F VSB 1/4
LINCOLN        LGT RAIN  55  52  89 SW8       29.75F
FALLS CITY     LGT RAIN  54  51  90 W7        29.72F
LAMONI         FOG       57  56  96 NE3       29.73F VSB 1/4
DES MOINES     LGT RAIN  59  56  89 E5        29.75F

$$




USA.gov is the U.S. government's official web portal to all federal, state and local government web resources and services.